Simultaneous Nadir Overpasses (SNOs) Predictions

Prediction of SNOs between GOES-14 and NOAA-20 Satellite Orbit:

Table of predicted SNOs for the next 14.0 days since TLE Epoch: 2/10/2024
Index Date Time (GOES-14) GOES-14 Lat,Lon NOAA-20 Lat,Lon Distance(km) Time Diff (sec)
1 02/10/2024 20:27:42 -0.00,-108.46 0.56,-106.02 279.18 80
2 02/12/2024 08:52:09 0.01,-108.44 0.67,-111.27 323.83 80
3 02/13/2024 08:30:46 0.00,-108.43 -0.40,-106.75 192.01 80
4 02/14/2024 20:55:22 -0.01,-108.45 -0.82,-112.05 410.85 80
5 02/15/2024 20:33:58 -0.00,-108.45 0.19,-107.52 105.11 80
6 02/17/2024 08:58:25 0.01,-108.42 1.02,-112.78 497.66 80
7 02/18/2024 08:37:02 0.01,-108.42 -0.05,-108.26 18.33 80
8 02/20/2024 20:42:53 -0.02,-108.42 -0.13,-109.03 69.42 80
9 02/21/2024 20:21:29 -0.01,-108.42 0.89,-104.50 446.63 80
10 02/23/2024 08:45:56 0.02,-108.39 0.31,-109.77 155.73 80
